Time,TemperatureF,DewpointF,PressureIn,WindDirection,WindDirectionDegrees,WindSpeedMPH,WindSpeedGustMPH,Humidity,HourlyPrecipIn,Conditions,Clouds,dailyrainin,SoftwareType,DateUTC
2013-09-26 00:22:00,34.0,33.0,-100.00,South,175,4.0,5.0,94,0.00,,,0.17,,2013-09-26 06:22:00,
2013-09-26 00:33:00,34.0,33.0,-100.00,South,175,4.0,5.0,94,0.00,,,0.17,,2013-09-26 06:33:00,
2013-09-26 00:42:00,34.0,33.0,-100.00,South,175,4.0,5.0,94,0.00,,,0.17,,2013-09-26 06:42:00,
2013-09-26 00:53:00,34.0,33.0,-100.00,South,175,4.0,5.0,94,0.00,,,0.17,,2013-09-26 06:53:00,
2013-09-26 01:22:00,34.0,32.0,-100.00,NNW,347,1.0,2.0,93,0.00,,,0.17,,2013-09-26 07:22:00,
2013-09-26 01:32:00,34.0,32.0,-100.00,NNW,347,1.0,2.0,93,0.00,,,0.17,,2013-09-26 07:32:00,
2013-09-26 01:42:00,34.0,32.0,-100.00,NNW,347,1.0,2.0,93,0.00,,,0.17,,2013-09-26 07:42:00,
2013-09-26 01:53:00,34.0,32.0,-100.00,NNW,347,1.0,2.0,93,0.00,,,0.17,,2013-09-26 07:53:00,
2013-09-26 02:22:00,34.0,32.0,-100.00,South,183,4.0,5.0,93,0.00,,,0.17,,2013-09-26 08:22:00,
2013-09-26 02:32:00,34.0,32.0,-100.00,South,183,4.0,5.0,93,0.00,,,0.17,,2013-09-26 08:32:00,
2013-09-26 02:42:00,34.0,32.0,-100.00,South,183,4.0,5.0,93,0.00,,,0.17,,2013-09-26 08:42:00,
2013-09-26 02:52:00,34.0,32.0,-100.00,South,183,4.0,5.0,93,0.00,,,0.17,,2013-09-26 08:52:00,
2013-09-26 03:22:00,33.0,32.0,-100.00,SSW,192,4.0,7.0,94,0.01,,,0.18,,2013-09-26 09:22:00,
2013-09-26 03:33:00,33.0,32.0,-100.00,SSW,192,4.0,7.0,94,0.01,,,0.18,,2013-09-26 09:33:00,
2013-09-26 03:43:00,33.0,32.0,-100.00,SSW,192,4.0,7.0,94,0.01,,,0.18,,2013-09-26 09:43:00,
2013-09-26 03:53:00,33.0,32.0,-100.00,SSW,192,4.0,7.0,94,0.01,,,0.18,,2013-09-26 09:53:00,
2013-09-26 04:23:00,32.0,31.0,-100.00,South,170,8.0,13.0,96,0.01,,,0.19,,2013-09-26 10:23:00,
2013-09-26 04:32:00,32.0,31.0,-100.00,South,170,8.0,13.0,96,0.01,,,0.19,,2013-09-26 10:32:00,
2013-09-26 04:42:00,32.0,31.0,-100.00,South,170,8.0,13.0,96,0.01,,,0.19,,2013-09-26 10:42:00,
2013-09-26 04:53:00,32.0,31.0,-100.00,South,170,8.0,13.0,96,0.01,,,0.19,,2013-09-26 10:53:00,
2013-09-26 05:22:00,32.0,31.0,-100.00,SSW,213,2.0,4.0,97,0.00,,,0.19,,2013-09-26 11:22:00,
2013-09-26 05:33:00,32.0,31.0,-100.00,SSW,213,2.0,4.0,97,0.00,,,0.19,,2013-09-26 11:33:00,
2013-09-26 05:42:00,32.0,31.0,-100.00,SSW,213,2.0,4.0,97,0.00,,,0.19,,2013-09-26 11:42:00,
2013-09-26 05:52:00,32.0,31.0,-100.00,SSW,213,2.0,4.0,97,0.00,,,0.19,,2013-09-26 11:52:00,
2013-09-26 06:21:00,32.0,32.0,-100.00,West,272,2.0,4.0,97,0.00,,,0.17,,2013-09-26 12:21:00,
2013-09-26 06:32:00,32.0,32.0,-100.00,West,272,2.0,4.0,97,0.00,,,0.17,,2013-09-26 12:32:00,
2013-09-26 06:42:00,32.0,32.0,-100.00,West,272,2.0,4.0,97,0.00,,,0.17,,2013-09-26 12:42:00,
2013-09-26 06:52:00,32.0,32.0,-100.00,West,272,2.0,4.0,97,0.00,,,0.17,,2013-09-26 12:52:00,
2013-09-26 07:21:00,33.0,32.0,-100.00,ENE,64,1.0,2.0,97,0.00,,,0.14,,2013-09-26 13:21:00,
2013-09-26 07:32:00,33.0,32.0,-100.00,ENE,64,1.0,2.0,97,0.00,,,0.14,,2013-09-26 13:32:00,
2013-09-26 07:42:00,33.0,32.0,-100.00,ENE,64,1.0,2.0,97,0.00,,,0.14,,2013-09-26 13:42:00,
2013-09-26 07:52:00,33.0,32.0,-100.00,ENE,64,1.0,2.0,97,0.00,,,0.14,,2013-09-26 13:52:00,
2013-09-26 08:22:00,33.0,32.0,-100.00,East,96,1.0,2.0,97,0.00,,,0.13,,2013-09-26 14:22:00,
2013-09-26 08:32:00,33.0,32.0,-100.00,East,96,1.0,2.0,97,0.00,,,0.13,,2013-09-26 14:32:00,
2013-09-26 08:42:00,33.0,32.0,-100.00,East,96,1.0,2.0,97,0.00,,,0.13,,2013-09-26 14:42:00,
2013-09-26 08:52:00,33.0,32.0,-100.00,East,96,1.0,2.0,97,0.00,,,0.13,,2013-09-26 14:52:00,
2013-09-26 09:22:00,34.0,33.0,-100.00,ESE,110,1.0,2.0,95,0.00,,,0.12,,2013-09-26 15:22:00,
2013-09-26 09:33:00,34.0,33.0,-100.00,ESE,110,1.0,2.0,95,0.00,,,0.12,,2013-09-26 15:33:00,
2013-09-26 09:44:00,34.0,33.0,-100.00,ESE,110,1.0,2.0,95,0.00,,,0.12,,2013-09-26 15:44:00,
2013-09-26 09:53:00,34.0,33.0,-100.00,ESE,110,1.0,2.0,95,0.00,,,0.12,,2013-09-26 15:53:00,
2013-09-26 10:24:00,36.0,32.0,-100.00,NNE,16,5.0,6.0,84,0.00,,,0.12,,2013-09-26 16:24:00,
2013-09-26 10:33:00,36.0,32.0,-100.00,NNE,16,5.0,6.0,84,0.00,,,0.12,,2013-09-26 16:33:00,
2013-09-26 10:43:00,36.0,32.0,-100.00,NNE,16,5.0,6.0,84,0.00,,,0.12,,2013-09-26 16:43:00,
2013-09-26 10:53:00,36.0,32.0,-100.00,NNE,16,5.0,6.0,84,0.00,,,0.12,,2013-09-26 16:53:00,
2013-09-26 11:23:00,38.0,30.0,-100.00,NNE,32,4.0,7.0,74,0.00,,,0.12,,2013-09-26 17:23:00,
2013-09-26 11:34:00,38.0,30.0,-100.00,NNE,32,4.0,7.0,74,0.00,,,0.12,,2013-09-26 17:34:00,
2013-09-26 11:43:00,38.0,30.0,-100.00,NNE,32,4.0,7.0,74,0.00,,,0.12,,2013-09-26 17:43:00,
2013-09-26 11:52:00,38.0,30.0,-100.00,NNE,32,4.0,7.0,74,0.00,,,0.12,,2013-09-26 17:52:00,
2013-09-26 12:22:00,39.0,29.0,-100.00,NNE,12,5.0,8.0,65,0.00,,,0.12,,2013-09-26 18:22:00,
2013-09-26 12:32:00,39.0,29.0,-100.00,NNE,12,5.0,8.0,65,0.00,,,0.12,,2013-09-26 18:32:00,
2013-09-26 12:42:00,39.0,29.0,-100.00,NNE,12,5.0,8.0,65,0.00,,,0.12,,2013-09-26 18:42:00,
2013-09-26 12:52:00,39.0,29.0,-100.00,NNE,12,5.0,8.0,65,0.00,,,0.12,,2013-09-26 18:52:00,
2013-09-26 13:22:00,43.0,30.0,-100.00,NNE,32,8.0,12.0,60,0.00,,,0.12,,2013-09-26 19:22:00,
2013-09-26 13:32:00,43.0,30.0,-100.00,NNE,32,8.0,12.0,60,0.00,,,0.12,,2013-09-26 19:32:00,
2013-09-26 13:43:00,43.0,30.0,-100.00,NNE,32,8.0,12.0,60,0.00,,,0.12,,2013-09-26 19:43:00,
2013-09-26 13:52:00,43.0,30.0,-100.00,NNE,32,8.0,12.0,60,0.00,,,0.12,,2013-09-26 19:52:00,
2013-09-26 14:22:00,45.0,28.0,-100.00,North,6,9.0,16.0,51,0.00,,,0.12,,2013-09-26 20:22:00,
2013-09-26 14:32:00,45.0,28.0,-100.00,North,6,9.0,16.0,51,0.00,,,0.12,,2013-09-26 20:32:00,
2013-09-26 14:42:00,45.0,28.0,-100.00,North,6,9.0,16.0,51,0.00,,,0.12,,2013-09-26 20:42:00,
2013-09-26 14:52:00,45.0,28.0,-100.00,North,6,9.0,16.0,51,0.00,,,0.12,,2013-09-26 20:52:00,
2013-09-26 14:54:00,46.0,27.0,-100.00,North,351,7.0,12.0,48,0.00,,,0.12,,2013-09-26 20:54:00,
2013-09-26 15:23:00,46.0,27.0,-100.00,North,351,7.0,12.0,48,0.00,,,0.12,,2013-09-26 21:23:00,
2013-09-26 15:34:00,46.0,27.0,-100.00,North,351,7.0,12.0,48,0.00,,,0.12,,2013-09-26 21:34:00,
2013-09-26 15:44:00,46.0,27.0,-100.00,North,351,7.0,12.0,48,0.00,,,0.12,,2013-09-26 21:44:00,
2013-09-26 15:54:00,46.0,29.0,-100.00,NE,39,8.0,12.0,52,0.00,,,0.10,,2013-09-26 21:54:00,
2013-09-26 16:24:00,46.0,29.0,-100.00,NE,39,8.0,12.0,52,0.00,,,0.10,,2013-09-26 22:24:00,
2013-09-26 16:32:00,46.0,29.0,-100.00,NE,39,8.0,12.0,52,0.00,,,0.10,,2013-09-26 22:32:00,
2013-09-26 16:42:00,46.0,29.0,-100.00,NE,39,8.0,12.0,52,0.00,,,0.10,,2013-09-26 22:42:00,
2013-09-26 17:23:00,40.0,29.0,-100.00,North,1,12.0,18.0,65,0.00,,,0.06,,2013-09-26 23:23:00,
2013-09-26 17:34:00,40.0,29.0,-100.00,North,1,12.0,18.0,65,0.00,,,0.06,,2013-09-26 23:34:00,
2013-09-26 17:42:00,40.0,29.0,-100.00,North,1,12.0,18.0,65,0.00,,,0.06,,2013-09-26 23:42:00,
2013-09-26 17:53:00,40.0,29.0,-100.00,North,1,12.0,18.0,65,0.00,,,0.06,,2013-09-26 23:53:00,
2013-09-26 18:22:00,38.0,30.0,-100.00,North,5,7.0,12.0,73,0.00,,,0.02,,2013-09-27 00:22:00,
2013-09-26 18:32:00,38.0,30.0,-100.00,North,5,7.0,12.0,73,0.00,,,0.02,,2013-09-27 00:32:00,
2013-09-26 18:43:00,38.0,30.0,-100.00,North,5,7.0,12.0,73,0.00,,,0.02,,2013-09-27 00:43:00,
2013-09-26 18:52:00,38.0,30.0,-100.00,North,5,7.0,12.0,73,0.00,,,0.02,,2013-09-27 00:52:00,
2013-09-26 19:23:00,36.0,29.0,-100.00,North,10,10.0,16.0,76,0.00,,,0.02,,2013-09-27 01:23:00,
2013-09-26 19:32:00,36.0,29.0,-100.00,North,10,10.0,16.0,76,0.00,,,0.02,,2013-09-27 01:32:00,
2013-09-26 19:42:00,36.0,29.0,-100.00,North,10,10.0,16.0,76,0.00,,,0.02,,2013-09-27 01:42:00,
2013-09-26 19:52:00,36.0,29.0,-100.00,North,10,10.0,16.0,76,0.00,,,0.02,,2013-09-27 01:52:00,
2013-09-26 20:22:00,35.0,29.0,-100.00,North,9,8.0,13.0,77,0.00,,,0.02,,2013-09-27 02:22:00,
2013-09-26 20:32:00,35.0,29.0,-100.00,North,9,8.0,13.0,77,0.00,,,0.02,,2013-09-27 02:32:00,
2013-09-26 20:42:00,35.0,29.0,-100.00,North,9,8.0,13.0,77,0.00,,,0.02,,2013-09-27 02:42:00,
2013-09-26 20:53:00,35.0,29.0,-100.00,North,9,8.0,13.0,77,0.00,,,0.02,,2013-09-27 02:53:00,
2013-09-26 20:54:00,35.0,29.0,-100.00,NNE,26,9.0,16.0,78,0.00,,,0.02,,2013-09-27 02:54:00,
2013-09-26 21:22:00,35.0,29.0,-100.00,NNE,26,9.0,16.0,78,0.00,,,0.02,,2013-09-27 03:22:00,
2013-09-26 21:34:00,35.0,29.0,-100.00,NNE,26,9.0,16.0,78,0.00,,,0.02,,2013-09-27 03:34:00,
2013-09-26 21:44:00,35.0,29.0,-100.00,NNE,26,9.0,16.0,78,0.00,,,0.02,,2013-09-27 03:44:00,
2013-09-26 21:54:00,34.0,29.0,-100.00,NNE,26,10.0,18.0,81,0.00,,,0.02,,2013-09-27 03:54:00,
2013-09-26 22:24:00,34.0,29.0,-100.00,NNE,26,10.0,18.0,81,0.00,,,0.02,,2013-09-27 04:24:00,
2013-09-26 22:33:00,34.0,29.0,-100.00,NNE,26,10.0,18.0,81,0.00,,,0.02,,2013-09-27 04:33:00,
2013-09-26 22:44:00,34.0,29.0,-100.00,NNE,26,10.0,18.0,81,0.00,,,0.02,,2013-09-27 04:44:00,
2013-09-26 23:23:00,34.0,28.0,-100.00,North,9,6.0,9.0,79,0.00,,,0.02,,2013-09-27 05:23:00,
2013-09-26 23:34:00,34.0,28.0,-100.00,North,9,6.0,9.0,79,0.00,,,0.02,,2013-09-27 05:34:00,
2013-09-26 23:43:00,34.0,28.0,-100.00,North,9,6.0,9.0,79,0.00,,,0.02,,2013-09-27 05:43:00,
2013-09-26 23:52:00,34.0,28.0,-100.00,North,9,6.0,9.0,79,0.00,,,0.02,,2013-09-27 05:52:00,